Location: Budapest
(47.4979°N, 19.0402°E)
Time: 04:41:20
(UTC+02:00)

ISS - Visible Passes

Search period start: 22 May 2024 00:00
Search period end: 01 June 2024 00:00
Orbit: 409 x 414 km, 51.6° (Epoch: 21 May)

Date Brightness Start Highest point End Pass type
(mag) Time Alt. Az. Time Alt. Az. Time Alt. Az.
22 May -3.6 21:45:55 10° WNW 21:49:15 72° NNE 21:51:47 16° ESE visible
22 May -1.9 23:22:54 10° W 23:24:34 20° WSW 23:24:34 20° WSW visible
23 May -3.1 22:32:38 10° WNW 22:35:46 38° SW 22:36:17 35° S visible
24 May -3.6 21:42:28 10° WNW 21:45:46 61° SSW 21:47:59 19° SE visible
25 May -1.9 22:29:34 10° W 22:31:56 18° SW 22:32:28 18° SSW visible
26 May -2.5 21:39:01 10° W 21:41:56 29° SW 21:44:10 14° SSE visible
28 May -1.3 21:36:02 10° WSW 21:37:46 14° SW 21:39:30 10° SSW visible
